www.pogodaiklimat.ru

Погода и климат >> Архив погоды >> Россия >> Тува >> Кызыл


АРХИВ ПОГОДЫ в Кызыле

Время (UTC), дата Ветер
(напр.,м/с)
 
Видим.   Явления Облачность Т
(С)
Тd
(С)
f
(%)
Тe
(С)
Тes
(С)
Комфортность P
(гПа)
Po
(гПа)
Тmin
(С)
Tmax
(С)
R
(мм)
R24
(мм)
S
(см)
12 18.05 ЮВ 3 50 км 9/3 1000 м
[Sc Ac trans Ci fib]
+13.9 -11.8 16 +13 +14 холодно 1019.8 946.5 +15.1
15 18.05 СВ 1 10 км 4/4 1000 м
[Sc]
+8.4 -7.2 32 +8 +8 холодно 1021.4 946.6
18 18.05 ЮЗ 1 10 км 6/3 1000 м
[Sc Ci fib]
+5.8 -9.4 33 +6 +6 прохладно 1021.7 946.2
21 18.05 В 2 10 км 9/6 1000 м
[Cb cap Ac trans]
+4.8 -8.2 38 +3 +3 холодно 1021.9 946.2
00 19.05 СВ 1 50 км 8/6 1000 м
[Cb cap Ac trans Ci fib]
+7.0 -7.0 36 +7 +8 по сезону 1021.9 946.8 +4.0
03 19.05 В 4 50 км 6/3 1000 м
[Cu med, cong Ci fib]
+14.2 -12.3 15 +13 +18 по сезону 1018.6 945.4
06 19.05 В 3 50 км 6/3 1000 м
[Cu med, cong Ci fib]
+19.2 -8.8 14 +19 +28 по сезону 1015.0 943.4
09 19.05 Ю 2 50 км 6/3 1000 м
[Cu med, cong Ci fib]
+22.1 -9.8 11 +20 +26 тепло 1011.3 940.5
12 19.05 ЮВ 2 50 км 5/3 1000 м
[Cu med, cong Ac trans]
+22.0 -8.8 12 +20 +21 тепло 1010.2 939.5 +23.1
15 19.05 СВ 1 10 км 8/3 1000 м
[Sc Ac trans Ci fib]
+14.6 -7.4 21 +15 +15 по сезону 1012.6 940.0
18 19.05 С 1 10 км 1/0
[Ac trans]
+10.7 -3.8 36 +11 +11 по сезону 1014.4 940.8
21 19.05 С 1 10 км 3/0
[Ci fib]
+6.7 -3.7 47 +6 +6 по сезону 1015.4 940.7
00 20.05 С 1 50 км 3/0
[Ci fib]
+9.1 -5.9 34 +9 +12 по сезону 1015.3 941.2 +5.0
03 20.05 В 2 50 км 8/0
[Ci fib]
+19.7 -7.9 15 +20 +30 тепло 1010.3 939.1
06 20.05 В 1 50 км 8/1 1000 м
[Sc Ci fib]
+25.5 -6.1 12 +23 +38 комфорт 1006.2 936.6
09 20.05 З 2 50 км 9/8 1000 м
[Cb cap Ci fib]
+26.6 -5.0 12 +24 +26 комфорт 1003.8 934.6
12 20.05 СЗ 2
{12}
50 км 9/8 1000 м
[Cb cap Ac trans Ci fib]
+24.1 -2.2 17 +22 +23 комфорт 1005.0 935.2 +28.4
15 20.05 Ю 1 10 км 5/3 1000 м
[Sc Ac trans]
+19.8 -0.5 26 +21 +21 комфорт 1006.4 935.5
18 20.05 штиль 0 10 км 8/4 1000 м
[Sc Ci fib]
+11.5 +1.0 48 +11 +11 по сезону 1008.9 935.9
21 20.05 С 1 10 км 9/6 1000 м
[Cb cap Ac trans Ci fib]
+9.8 +1.4 56 +10 +10 по сезону 1008.1 934.7
00 21.05 СВ 1 50 км 8/4 1000 м
[Sc Ac trans Ci fib]
+12.3 +0.6 45 +13 +14 тепло 1006.7 934.0 +9.5
03 21.05 В 1 50 км 9/4 1000 м
[Cb cap Ac trans Ci fib]
+21.3 -0.2 24 +21 +26 комфорт 1002.5 932.3
06 21.05 ЮЗ 1 50 км 9/8 1000 м
[Cb cap Ac trans Ci fib]
+24.8 -0.6 19 +23 +26 комфорт 1000.7 931.4
09 21.05 ЮЗ 2 50 км 9/5 1000 м
[Cb cap Ac trans Ci fib]
+27.7 -1.4 15 +25 +28 комфорт 997.2 928.8
12 21.05 ЮВ 3 50 км 9/6 1000 м
[Cb cap Ac trans Ci fib]
+27.6 -1.2 15 +25 +25 комфорт 994.2 925.9 +29.2
15 21.05 СВ 1 10 км 9/8 1000 м
[Cb cap Ac trans Ci fib]
+22.2 +2.7 28 +22 +22 комфорт 994.6 925.2
18 21.05 СЗ 3
{12}
10 км 9/6 1000 м
[Cb cap Ac trans Ci fib]
+17.3 +5.6 46 +17 +17 тепло 999.0 928.2
21 21.05 З 2
{14}
10 км слаб. ливневой дождь 10/10 1000 м
[Cb cap]
+15.5 +4.1 47 +16 +16 тепло 1001.4 930.0
00 22.05 С 2 50 км {ливн. осадки} 9/8 1000 м
[Cb cap Ci fib]
+14.8 +5.0 52 +15 +15 тепло 1003.0 931.3 +14.4 0.0
03 22.05 С 3 50 км 9/8 1000 м
[Cb cap Ac trans Ci fib]
+17.6 +4.3 41 +18 +19 тепло 1001.9 930.9
06 22.05 З 3 50 км в посл. час ливневой дождь 9/6 1000 м
[Cb cap Ac trans Ci fib]
+20.5 +3.6 33 +21 +25 комфорт 1001.2 930.9
09 22.05 С 3 50 км 8/4 1000 м
[Sc Ac trans Ci fib]
+21.3 +2.0 28 +21 +24 комфорт 999.3 929.3
12 22.05 С 4 50 км 8/4 1000 м
[Sc Ac trans]
+20.6 +0.7 26 +21 +21 комфорт 997.6 927.6 +22.6 0.0
15 22.05 С 5-13
{13}
50 км 3/3 1000 м
[Sc]
+16.4 +0.2 33 +16 +16 тепло 997.3 926.3
18 22.05 СЗ 3
{13}
10 км 9/5 1000 м
[Cb cap Ac trans Ci fib]
+14.4 +0.6 39 +14 +14 тепло 995.6 924.3
21 22.05 З 1
{10}
20 км 9/5 1000 м
[Cb cap Ac trans Ci fib]
+12.7 +2.4 49 +13 +13 тепло 996.1 924.4
00 23.05 З 6-10
{15}
50 км в посл. час ливневой дождь 9/8 1000 м
[Cb cap Ac trans]
+11.2 +1.3 50 +9 +9 по сезону 1005.9 933.0 +11.1 0.1
03 23.05 С 4
{12}
50 км 8/5 1000 м
[Cu med, cong Ac trans]
+13.4 -2.6 33 +12 +15 по сезону 1009.0 936.4
06 23.05 С 3 50 км 9/5 1000 м
[Cu med, cong Ac trans Ci fib]
+16.4 -2.5 27 +16 +20 прохладно 1009.1 937.2
09 23.05 СЗ 3
{10}
50 км 8/4 1000 м
[Cb cap Ac trans Ci fib]
+17.4 -6.8 19 +17 +21 по сезону 1008.4 936.8
12 23.05 С 4
{11}
50 км 6/3 1000 м
[Cu hum Ac trans Ci fib]
+16.0 -5.6 22 +15 +16 прохладно 1009.0 937.0 +18.0
15 23.05 СЗ 5
{10}
10 км 10/10 1000 м
[Cb cap]
+22.4 -1.7 20 +21 +21 комфорт 1012.2 939.1
18 23.05 СЗ 3
{10}
10 км 10/10 1000 м
[Cb cap]
+11.2 -1.8 40 +10 +10 по сезону 1014.3 940.8
21 23.05 ЮЗ 2 10 км 9/8 1000 м
[Cb cap Ac trans]
+8.4 +0.7 58 +7 +7 по сезону 1016.6 942.3
00 24.05 З 3 50 км 8/6 1000 м
[Cb cap Ac trans Ci fib]
+9.6 -1.1 47 +8 +8 по сезону 1018.2 944.1 +8.3
03 24.05 С 2 50 км 9/6 1000 м
[Cb cap Ac trans Ci fib]
+11.5 -4.0 34 +11 +14 прохладно 1017.8 944.1
06 24.05 С 2 50 км 8/5 1000 м
[Cb cap Ac trans Ci fib]
+13.5 -4.5 28 +13 +19 холодно 1016.8 943.6
09 24.05 С 3
{14}
50 км {ливн. осадки} 9/6 1000 м
[Cb cap Ac trans Ci fib]
+13.7 -3.7 30 +13 +15 холодно 1016.3 943.3
12 24.05 С 3
{10}
50 км {ливн. осадки} 8/4 1000 м
[Cb cap Ac trans Ci fib]
+14.7 -5.7 24 +14 +15 холодно 1016.1 943.3 +16.6 0.0
15 24.05 штиль 0 10 км 5/1 1000 м
[Sc Ac trans Ci fib]
+9.1 -0.2 52 +9 +9 холодно 1019.7 945.3
18 24.05 С 1 10 км 1/1 1000 м
[Sc]
+4.2 -1.9 64 +3 +3 холодно 1023.2 947.3
21 24.05 СВ 1 10 км 3/3 1000 м
[Sc]
+2.9 -1.0 75 +2 +2 холодно 1025.6 949.2
00 25.05 В 2 50 км 6/3 1000 м
[Sc Ac trans]
+5.5 -0.9 63 +3 +5 холодно 1026.6 950.7 +1.6
03 25.05 СВ 1 50 км 3/3 1000 м
[Cu med, cong]
+12.2 -2.0 37 +13 +22 по сезону 1024.3 950.3
06 25.05 З 3 50 км 6/4 1000 м
[Cu med, cong Ci fib]
+16.2 -4.7 23 +16 +24 прохладно 1021.9 949.1

 

Местоположение метеостанции Кызыл (Тува, Россия): широта 51.72 долгота 94.50 высота над уровнем моря 632 м.

В архиве по умолчанию представлена погода в Кызыле за последнюю неделю. Архивные данные за месяц целиком и за предыдущие месяцы, начиная с января 2011 года, Вы можете получить, выбрав интересующий диапазон дат из раскрывающегося списка и нажав кнопку "Ввод!".


*Определитесь, кто Вы:
робот инопланетянин человек

Внимание! Время в таблицах - всемирное. Для получения местного времени необходимо прибавить поправку, которая равна 7 ч.

Смотрите также архив погоды в соседних городах и на ближайших метеорологических станциях:

Погода в Туране (Тува, Россия) (61 км)
Погода в Сосновке (Тува, Россия) (63 км)
Погода в Сарыг-Сепе (Тува, Россия) (78 км)
Погода в Хову-Аксы (Тува, Россия) (81 км)
Погода в Нижнеусинском (Красноярский край, Россия) (118 км)
Погода в Шагонаре (Тува, Россия) (127 км)
Погода в Тоора-Хем (Тува, Россия) (138 км)
Погода в Оленьей Речке (Красноярский край, Россия) (148 км)
Погода в Усть-Усе (Красноярский край, Россия) (159 км)
Погода в Эрзине (Тува, Россия) (167 км)

Пояснения к столбцам:

Ветер - указаны скорость ветра в м/с - средняя за 10 мин, порывы в срок и между сроками (в фигурных скобках) и направление, откуда дует ветер: С - северный, СВ - северо-восточный, В - восточный, ЮВ - юго-восточный, Ю - южный, ЮЗ - юго-западный, З - западный, СЗ - северо-западный.
Видимость - горизонтальная дальность видимости в метрах или километрах. При видимости от 1 до 10 км при отсутствии осадков обычно наблюдается дымка, при ухудшении видимости до 1 км и менее - туман. В сухую погоду видимость может ухудшаться дымом, пылью или мглою.
Явления - указаны атмосферные явления, наблюдавшиеся в срок или в последний час перед сроком; фигурными скобками обозначены явления, наблюдавшиеся между сроками (за 1-3 часа до срока); квадратными скобками обозначены град или гололедные отложения с указанием их диаметра в мм.
Облачность - указаны через наклонную черту общая и нижняя облачность в баллах и высота нижней границы облаков в метрах; квадратными скобками обозначены формы облаков: Ci - перистые, Cs - перисто-слоистые, Cc - перисто-кучевые, Ac - высококучевые, As - высокослоистые, Sc - слоисто-кучевые, Ns - слоисто-дождевые, Cu - кучевые, Cb - кучево-дождевые. Подробнее классификацию облаков см. в Атласе облаков (PDF).
T - Температура воздуха - температура, измеренная на высоте 2 м над землей.
Td - Температура точки росы - температура, при понижении до которой содержащийся в воздухе водяной пар достигнет насыщения.
f - Относительная влажность воздуха - влажноcть воздуха, измеренная на высоте 2 м над землей.
Te - Эффективная температура - температура, которую ощущает одетый по сезону человек в тени. Характеристика душности погоды. При расчете учитывается влияние влажности воздуха и скорости ветра на теплоощущения человека.
Tes - Эффективная температура на солнце - температура, которую ощущает человек, с поправкой на солнечный нагрев. Характеристика знойности погоды. Зависит от высоты солнца над горизонтом, облачности и скорости ветра. Ночью, в пасмурную погоду, а также при ветре 12 м/с и более поправка равна нулю.
P - Атмосферное давление - приведенное к уровню моря атмосферное давление.
Po - Атмосферное давление - измеренное на уровне метеостанции атмосферное давление.
Tmin - Минимальная температура - минимум температуры воздуха на высоте 2 м над землей.
Tmax - Максимальная температура - максимум температуры воздуха на высоте 2 м над землей.
R - Количество осадков - Количество выпавших осадков за период времени, мм. При наведении курсора мыши на число - период времени, за который выпало указанное количество осадков.
R24 - Количество осадков - Количество выпавших осадков за 24 часа, мм.
S - Снежный покров - Высота снежного покрова, см. При наведении курсора мыши на число - состояние снежного покрова и степень покрытия местности в баллах.